Weather History for Prerov, Czech Republic

Change the Weather History Date:

Thursday, December 6, 2012

  Actual Average Record
Temperature  
Mean Temperature 26 °F -  
Max Temperature 32 °F - - ()
Min Temperature 19 °F - - ()
Degree Days  
Heating Degree Days 40    
Moisture  
Dew Point 24 °F    
Average Humidity 91    
Maximum Humidity 100    
Minimum Humidity 74    
Precipitation  
Precipitation 0.00 in - - ()
Sea Level Pressure  
Sea Level Pressure 29.76 in    
Wind  
Wind Speed 3 mph ()    
Max Wind Speed 9 mph    
Max Gust Speed -    
Visibility 3.4 miles    
Events Snow    
T = Trace of Precipitation, MM = Missing Value Source: Averaged Metar Reports

Daily Weather History Graph

Daily Weather History Graph

Search for Another Location

Airport:

Trip Planner

Search our weather history database for the weather conditions in past years. The results will help you decide how hot, cold, wet, or windy it might be!

Date:

Astronomy

Dec. 06, 2012 Rise Set
Actual Time 7:31 AM CET 3:51 PM CET
Civil Twilight 6:53 AM CET 4:29 PM CET
Nautical Twilight 6:13 AM CET 5:09 PM CET
Astronomical Twilight 5:34 AM CET 5:48 PM CET
Moon 11:59 PM CET (12/6) 11:45 AM CET (12/6)
Length of Visible Light 9h 35m
Length of Day
8h 20m
Waning Gibbous, 52% of the Moon is Illuminated
Dec 6
Waning Gibbous
Dec 6
Last Quarter
Dec 13
New
Dec 20
First Quarter
Dec 28
Full

Hourly Weather History & Observations

Time (CET) Temp. Windchill Dew Point Humidity Pressure Visibility Wind Dir Wind Speed Gust Speed Precip Events Conditions
12:00 AM 21.2 °F - 21.2 °F 100% 29.71 in 1.1 mi East 1.2 mph - N/A   Mist
1:00 AM 21.2 °F - 19.4 °F 93% 29.71 in 1.7 mi Calm Calm - N/A   Mostly Cloudy
1:21 AM 21.2 °F - 19.4 °F 93% 29.71 in 2.2 mi East 2.3 mph - N/A   Mostly Cloudy
1:50 AM 19.4 °F - 17.6 °F 93% 29.71 in 2.5 mi ENE 2.3 mph - N/A   Scattered Clouds
2:00 AM 21.2 °F - 19.4 °F 93% 29.71 in 2.5 mi East 2.3 mph - N/A   Scattered Clouds
3:00 AM 19.4 °F - 17.6 °F 93% 29.71 in 2.5 mi Variable 1.2 mph - N/A   Mist
4:00 AM 23.0 °F - 21.2 °F 93% 29.71 in 2.5 mi Calm Calm - N/A   Scattered Clouds
4:15 AM 23.0 °F - 21.2 °F 93% 29.71 in 2.5 mi Calm Calm - N/A   Mostly Cloudy
5:00 AM 23.0 °F - 21.2 °F 93% 29.71 in 2.5 mi Calm Calm - N/A   Overcast
5:26 AM 23.0 °F - 23.0 °F 100% 29.71 in 2.8 mi Calm Calm - N/A   Overcast
6:00 AM 24.8 °F - 23.0 °F 93% 29.74 in 2.8 mi Calm Calm - N/A   Overcast
7:00 AM 24.8 °F 20.5 °F 24.8 °F 100% 29.74 in 2.5 mi SSE 3.5 mph - N/A   Overcast
7:40 AM 26.6 °F - 24.8 °F 93% 29.74 in 1.7 mi Variable 2.3 mph - N/A   Overcast
9:00 AM 26.6 °F - 26.6 °F 100% 29.74 in 1.6 mi Variable 2.3 mph - N/A Snow Light Snow
9:10 AM 26.6 °F - 26.6 °F 100% 29.74 in 1.7 mi Calm Calm - N/A Snow Light Snow
9:20 AM 26.6 °F - 26.6 °F 100% 29.74 in 2.5 mi Variable 2.3 mph - N/A   Overcast
9:50 AM 28.4 °F - 26.6 °F 93% 29.74 in 3.7 mi Variable 2.3 mph - N/A   Overcast
10:00 AM 28.4 °F 23.3 °F 26.6 °F 93% 29.74 in 6.2 mi South 4.6 mph - N/A   Overcast
11:00 AM 30.2 °F 23.4 °F 28.4 °F 93% 29.74 in 6.2 mi South 6.9 mph - N/A   Overcast
12:00 PM 30.2 °F 25.4 °F 28.4 °F 93% 29.74 in 5.0 mi SW 4.6 mph - N/A Snow Light Snow
1:00 PM 32.0 °F - 30.2 °F 93% 29.74 in 1.7 mi SSW 2.3 mph - N/A Snow Light Snow
1:45 PM 32.0 °F 27.5 °F 30.2 °F 93% 29.74 in 0.7 mi WSW 4.6 mph - N/A Snow Snow
1:53 PM 32.0 °F 26.4 °F 30.2 °F 93% 29.74 in 0.2 mi WSW 5.8 mph - N/A Snow Heavy Snow
2:00 PM 32.0 °F 25.6 °F 30.2 °F 93% 29.74 in 0.2 mi SW 6.9 mph - N/A Snow Heavy Snow
2:10 PM 32.0 °F 25.6 °F 30.2 °F 93% 29.74 in 1.6 mi SW 6.9 mph - N/A Snow Light Snow
2:25 PM 32.0 °F 26.4 °F 30.2 °F 93% 29.74 in 3.7 mi SW 5.8 mph - N/A   Overcast
3:00 PM 32.0 °F 24.8 °F 30.2 °F 93% 29.77 in 3.7 mi WSW 8.1 mph - N/A Snow Light Snow
4:00 PM 28.4 °F 21.2 °F 24.8 °F 86% 29.80 in 6.2 mi NW 6.9 mph - N/A   Partly Cloudy
5:00 PM 24.8 °F 17.9 °F 19.4 °F 80% 29.83 in 6.2 mi WNW 5.8 mph - N/A   Partly Cloudy
6:00 PM 26.6 °F 19.1 °F 21.2 °F 80% 29.86 in 6.2 mi WNW 6.9 mph - N/A   Mostly Cloudy
7:00 PM 24.8 °F 15.3 °F 19.4 °F 80% 29.86 in 6.2 mi West 9.2 mph - N/A   Partly Cloudy
8:00 PM 26.6 °F 21.2 °F 19.4 °F 74% 29.89 in 6.2 mi West 4.6 mph - N/A   Mostly Cloudy
9:00 PM 26.6 °F 22.6 °F 19.4 °F 74% 29.92 in 6.2 mi WSW 3.5 mph - N/A   Mostly Cloudy
10:00 PM 23.0 °F 14.7 °F 17.6 °F 80% 29.92 in 6.2 mi WNW 6.9 mph - N/A   Partly Cloudy
11:00 PM 21.2 °F 12.6 °F 15.8 °F 80% 29.95 in 6.2 mi West 6.9 mph - N/A   Scattered Clouds